Stevens Point, WI

1:49 AM CST on February 21, 2018 (GMT -0600)
Stevens Point Municipal

Weather History for KSTE - April, 2014

Change the Weather History Date:

Thursday, April 24, 2014

  Actual Average Record
Temperature  
Mean Temperature 37 °F -  
Max Temperature 40 °F 59 °F 84 °F (1960)
Min Temperature 34 °F 36 °F 18 °F (1956)
Degree Days  
Heating Degree Days 28    
Moisture  
Dew Point 31 °F    
Average Humidity 81    
Maximum Humidity 97    
Minimum Humidity 29    
Precipitation  
Precipitation 0.46 in - - ()
Sea Level Pressure  
Sea Level Pressure 29.88 in    
Wind  
Wind Speed 10 mph (ESE)    
Max Wind Speed 20 mph    
Max Gust Speed 30 mph    
Visibility 7 miles    
Events Rain    
Averages and records for this station are not official NWS values.
T = Trace of Precipitation, MM = Missing Value Source: NWS Daily Summary

Daily Weather History Graph

Daily Weather History Graph

Search for Another Location

Airport or City:

Trip Planner

Search our weather history database for the weather conditions in past years. The results will help you decide how hot, cold, wet, or windy it might be!

Date:

Astronomy

Apr. 24, 2014 Rise Set
Actual Time 5:59 AM CDT 7:54 PM CDT
Civil Twilight 5:27 AM CDT 8:25 PM CDT
Nautical Twilight 4:49 AM CDT 9:03 PM CDT
Astronomical Twilight 4:08 AM CDT 9:45 PM CDT
Moon 3:22 AM CDT (4/24) 2:58 PM CDT (4/24)
Length of Visible Light 14h 57m
Length of Day
13h 54m
Waning Crescent, 24% of the Moon is Illuminated
Apr 24
Waning Crescent
Apr 29
New
May 6
First Quarter
May 14
Full
May 21
Last Quarter

Hourly Weather History & Observations

Time (CDT) Temp. Windchill Dew Point Humidity Pressure Visibility Wind Dir Wind Speed Gust Speed Precip Events Conditions
12:15 AM 40.3 °F 35.5 °F 21.0 °F 46% 30.06 in 10.0 mi East 6.9 mph - N/A   Overcast
12:35 AM 40.1 °F 34.7 °F 17.8 °F 41% 30.07 in 10.0 mi ESE 8.1 mph - N/A   Overcast
12:55 AM 40.1 °F 35.3 °F 15.8 °F 37% 30.07 in 10.0 mi East 6.9 mph - N/A   Overcast
1:15 AM 39.4 °F 33.2 °F 17.8 °F 42% 30.07 in 10.0 mi East 9.2 mph - N/A   Overcast
1:55 AM 39.2 °F 35.0 °F 14.0 °F 36% 30.09 in 10.0 mi SSE 5.8 mph - N/A   Overcast
2:15 AM 39.2 °F 35.0 °F 9.5 °F 29% 30.09 in 10.0 mi SSE 5.8 mph - N/A   Overcast
2:35 AM 38.7 °F 35.2 °F 12.6 °F 34% 30.08 in 10.0 mi SE 4.6 mph - N/A   Overcast
3:15 AM 38.3 °F 32.5 °F 13.5 °F 36% 30.06 in 10.0 mi ESE 8.1 mph - N/A   Overcast
3:55 AM 37.8 °F 31.8 °F 14.9 °F 39% 30.03 in 10.0 mi East 8.1 mph - N/A   Overcast
4:15 AM 37.4 °F 32.8 °F 17.6 °F 45% 30.03 in 10.0 mi ESE 5.8 mph - N/A   Light Drizzle
4:35 AM 37.6 °F 32.3 °F 16.0 °F 41% 30.03 in 10.0 mi ESE 6.9 mph - N/A   Overcast
4:55 AM 36.1 °F 31.4 °F 19.9 °F 52% 30.03 in 10.0 mi ESE 5.8 mph - N/A Rain Light Rain
5:15 AM 35.1 °F 29.3 °F 22.1 °F 59% 30.02 in 10.0 mi ESE 6.9 mph - N/A   Drizzle
5:35 AM 34.7 °F 28.1 °F 24.6 °F 67% 30.01 in 10.0 mi ESE 8.1 mph - N/A Rain Light Rain
5:55 AM 34.2 °F 27.5 °F 26.4 °F 73% 30.01 in 10.0 mi ESE 8.1 mph - N/A Rain Light Rain
6:15 AM 34.2 °F 27.5 °F 27.3 °F 76% 30.00 in 10.0 mi ESE 8.1 mph - N/A Rain Light Rain
6:35 AM 34.2 °F 27.5 °F 29.1 °F 82% 30.00 in 7.0 mi ESE 8.1 mph - N/A Rain Light Rain
6:55 AM 34.7 °F 28.8 °F 29.3 °F 81% 30.01 in 7.0 mi SE 6.9 mph - N/A Rain Light Rain
7:15 AM 34.7 °F 27.5 °F 30.0 °F 83% 30.00 in 7.0 mi East 9.2 mph - 0.01 in Rain Light Rain
7:35 AM 34.3 °F 27.7 °F 30.6 °F 86% 30.00 in 10.0 mi East 8.1 mph - 0.01 in Rain Light Rain
7:55 AM 34.5 °F 28.6 °F 30.6 °F 85% 30.00 in 4.0 mi East 6.9 mph - 0.03 in Rain Light Rain
8:15 AM 34.2 °F 28.2 °F 31.5 °F 90% 30.00 in 5.0 mi East 6.9 mph - 0.01 in Rain Rain
8:35 AM 34.3 °F 27.7 °F 32.0 °F 91% 30.00 in 4.0 mi East 8.1 mph - 0.04 in Rain Rain
8:55 AM 34.3 °F 27.0 °F 32.0 °F 91% 30.01 in 3.0 mi ESE 9.2 mph - 0.08 in Rain Rain
9:15 AM 34.7 °F 26.4 °F 32.5 °F 92% 29.99 in 4.0 mi East 11.5 mph - 0.02 in Rain Rain
9:35 AM 34.7 °F 27.5 °F 33.1 °F 94% 29.98 in 4.0 mi East 9.2 mph - 0.06 in Rain Rain
9:55 AM 35.1 °F 26.4 °F 33.8 °F 95% 29.97 in 5.0 mi East 12.7 mph 17.3 mph 0.08 in Rain Rain
10:15 AM 35.4 °F 26.4 °F 34.2 °F 95% 29.96 in 7.0 mi East 13.8 mph - 0.01 in Rain Light Rain
10:35 AM 35.8 °F 26.9 °F 34.7 °F 96% 29.94 in 7.0 mi East 13.8 mph 19.6 mph 0.01 in Rain Light Rain
10:55 AM 36.1 °F 26.9 °F 34.9 °F 95% 29.93 in 7.0 mi East 15.0 mph 20.7 mph 0.02 in Rain Rain
11:15 AM 36.7 °F 27.2 °F 35.4 °F 95% 29.93 in 5.0 mi East 16.1 mph 20.7 mph 0.01 in Rain Rain
11:35 AM 37.4 °F 28.5 °F 36.0 °F 95% 29.90 in 5.0 mi East 15.0 mph 18.4 mph 0.02 in Rain Light Rain
11:55 AM 37.8 °F 28.3 °F 36.5 °F 95% 29.89 in 10.0 mi East 17.3 mph - 0.02 in   Overcast
12:15 PM 38.3 °F 30.9 °F 36.5 °F 93% 29.89 in 10.0 mi East 11.5 mph 25.3 mph N/A   Overcast
12:35 PM 39.2 °F 31.6 °F 37.2 °F 93% 29.89 in 10.0 mi ESE 12.7 mph 19.6 mph N/A Rain Light Rain
12:55 PM 39.2 °F 30.2 °F 37.4 °F 93% 29.87 in 10.0 mi East 17.3 mph 23.0 mph N/A Rain Light Rain
1:15 PM 39.9 °F 31.1 °F 37.8 °F 92% 29.86 in 7.0 mi East 17.3 mph 24.2 mph 0.01 in Rain Light Rain
1:35 PM 40.3 °F 31.9 °F 37.8 °F 91% 29.83 in 10.0 mi East 16.1 mph 23.0 mph 0.01 in Rain Light Rain
1:55 PM 40.5 °F 32.1 °F 37.6 °F 89% 29.82 in 7.0 mi ESE 16.1 mph 25.3 mph 0.02 in Rain Rain
2:15 PM 40.5 °F 32.5 °F 37.4 °F 89% 29.81 in 7.0 mi East 15.0 mph 26.5 mph 0.01 in Rain Light Rain
2:35 PM 40.1 °F 32.4 °F 36.9 °F 88% 29.80 in 5.0 mi ESE 13.8 mph 26.5 mph 0.03 in Rain Light Rain
2:55 PM 39.6 °F 30.6 °F 36.7 °F 89% 29.79 in 5.0 mi ESE 17.3 mph 25.3 mph 0.06 in Rain Rain
3:15 PM 39.6 °F 30.6 °F 36.7 °F 89% 29.79 in 5.0 mi East 17.3 mph 25.3 mph 0.02 in Rain Light Rain
3:35 PM 39.6 °F 30.6 °F 36.9 °F 90% 29.79 in 5.0 mi ESE 17.3 mph 27.6 mph 0.04 in Rain Light Rain
3:55 PM 40.1 °F 31.6 °F 37.0 °F 89% 29.76 in 5.0 mi East 16.1 mph 27.6 mph 0.04 in Rain Light Rain
4:15 PM 39.9 °F 30.5 °F 37.4 °F 91% 29.75 in 5.0 mi ESE 19.6 mph 29.9 mph N/A Rain Rain
4:35 PM 40.1 °F 31.3 °F 36.7 °F 88% 29.74 in 7.0 mi ESE 17.3 mph 24.2 mph N/A Rain Rain
4:55 PM 39.7 °F 30.3 °F 36.7 °F 89% 29.74 in 4.0 mi ESE 19.6 mph 27.6 mph 0.01 in Rain Light Rain
5:15 PM 39.6 °F 30.0 °F 36.7 °F 89% 29.73 in 4.0 mi East 19.6 mph 25.3 mph N/A Rain Light Rain
5:35 PM 39.2 °F 30.8 °F 36.9 °F 91% 29.72 in 3.0 mi ESE 15.0 mph 23.0 mph N/A Rain Rain
5:55 PM 39.2 °F 33.6 °F 37.0 °F 92% 29.75 in 3.0 mi ESE 8.1 mph - 0.01 in Rain Light Rain
6:15 PM 39.2 °F 31.6 °F 37.0 °F 92% 29.74 in 4.0 mi ESE 12.7 mph 18.4 mph 0.02 in Rain Light Rain
6:35 PM 39.2 °F 32.0 °F 36.9 °F 91% 29.74 in 7.0 mi East 11.5 mph 18.4 mph 0.02 in Rain Light Rain
6:55 PM 39.2 °F 31.6 °F 36.7 °F 91% 29.74 in 5.0 mi East 12.7 mph - 0.03 in Rain Light Rain
7:15 PM 39.2 °F 32.0 °F 36.5 °F 90% 29.73 in 5.0 mi ESE 11.5 mph 21.9 mph N/A Rain Light Rain
7:35 PM 38.8 °F 30.8 °F 36.9 °F 93% 29.73 in 5.0 mi East 13.8 mph - N/A Rain Light Rain
7:55 PM 39.2 °F 31.6 °F 36.7 °F 91% 29.74 in 5.0 mi ESE 12.7 mph 18.4 mph 0.01 in Rain Light Rain
8:15 PM 38.7 °F 30.5 °F 36.7 °F 93% 29.73 in 4.0 mi East 13.8 mph 21.9 mph 0.01 in Rain Light Rain
8:35 PM 39.2 °F 30.8 °F 36.5 °F 90% 29.71 in 7.0 mi East 15.0 mph - 0.02 in Rain Light Rain
8:55 PM 38.7 °F 31.8 °F 36.5 °F 92% 29.71 in 10.0 mi ESE 10.4 mph 16.1 mph 0.02 in Rain Light Rain
9:15 PM 38.3 °F 30.1 °F 36.5 °F 93% 29.72 in 10.0 mi East 13.8 mph - N/A   Light Drizzle
9:35 PM 38.3 °F 31.9 °F 36.1 °F 92% 29.71 in 7.0 mi East 9.2 mph - N/A Rain Light Rain
9:55 PM 37.9 °F 31.5 °F 36.5 °F 95% 29.72 in 7.0 mi ESE 9.2 mph - N/A Rain Light Rain
10:15 PM 37.8 °F 29.8 °F 36.3 °F 95% 29.71 in 5.0 mi East 12.7 mph - 0.01 in Rain Light Rain
10:35 PM 37.6 °F 30.0 °F 36.0 °F 94% 29.70 in 5.0 mi East 11.5 mph 16.1 mph 0.02 in   Drizzle
10:55 PM 37.4 °F 30.8 °F 36.1 °F 95% 29.70 in 4.0 mi ESE 9.2 mph - 0.02 in   Light Drizzle
11:15 PM 37.4 °F 30.8 °F 36.5 °F 97% 29.69 in 3.0 mi East 9.2 mph - 0.01 in Rain Light Rain
11:35 PM 37.6 °F 33.1 °F 36.5 °F 96% 29.69 in 4.0 mi SE 5.8 mph - 0.01 in   Drizzle